Year,Month,Day,Hour,Minute,Value (Times are PST for temperature in C)
2006,07,12,00,00,16.70
2006,07,12,00,01,16.70
2006,07,12,00,02,16.70
2006,07,12,00,03,16.70
2006,07,12,00,04,16.70
2006,07,12,00,05,16.70
2006,07,12,00,06,16.70
2006,07,12,00,07,16.70
2006,07,12,00,08,16.70
2006,07,12,00,09,16.70
2006,07,12,00,10,16.70
2006,07,12,00,11,16.60
2006,07,12,00,12,16.60
2006,07,12,00,13,16.60
2006,07,12,00,14,16.60
2006,07,12,00,15,16.70
2006,07,12,00,16,16.70
2006,07,12,00,17,16.70
2006,07,12,00,18,16.70
2006,07,12,00,19,16.70
2006,07,12,00,20,16.70
2006,07,12,00,21,16.70
2006,07,12,00,22,16.70
2006,07,12,00,23,16.70
2006,07,12,00,24,16.70
2006,07,12,00,25,16.70
2006,07,12,00,26,16.70
2006,07,12,00,27,16.70
2006,07,12,00,28,16.70
2006,07,12,00,29,16.70
2006,07,12,00,30,16.70
2006,07,12,00,31,16.70
2006,07,12,00,32,16.70
2006,07,12,00,33,16.70
2006,07,12,00,34,16.70
2006,07,12,00,35,16.70
2006,07,12,00,36,16.70
2006,07,12,00,37,16.70
2006,07,12,00,38,16.70
2006,07,12,00,39,16.70
2006,07,12,00,40,16.70
2006,07,12,00,41,16.70
2006,07,12,00,42,16.60
2006,07,12,00,43,16.60
2006,07,12,00,44,16.60
2006,07,12,00,45,16.60
2006,07,12,00,46,16.60
2006,07,12,00,47,16.60
2006,07,12,00,48,16.60
2006,07,12,00,49,16.60
2006,07,12,00,50,16.60
2006,07,12,00,51,16.60
2006,07,12,00,52,16.50
2006,07,12,00,53,16.40
2006,07,12,00,54,16.40
2006,07,12,00,55,16.40
2006,07,12,00,56,16.40
2006,07,12,00,57,16.40
2006,07,12,00,58,16.40
2006,07,12,00,59,16.40
2006,07,12,01,00,16.40
2006,07,12,01,01,16.40
2006,07,12,01,02,16.40
2006,07,12,01,03,16.40
2006,07,12,01,04,16.40
2006,07,12,01,05,16.30
2006,07,12,01,06,16.30
2006,07,12,01,07,16.30
2006,07,12,01,08,16.30
2006,07,12,01,09,16.30
2006,07,12,01,10,16.30
2006,07,12,01,11,16.30
2006,07,12,01,12,16.30
2006,07,12,01,13,16.30
2006,07,12,01,14,16.20
2006,07,12,01,15,16.20
2006,07,12,01,16,16.20
2006,07,12,01,17,16.20
2006,07,12,01,18,16.20
2006,07,12,01,19,16.20
2006,07,12,01,20,16.20
2006,07,12,01,21,16.20
2006,07,12,01,22,16.20
2006,07,12,01,23,16.20
2006,07,12,01,24,16.20
2006,07,12,01,25,16.20
2006,07,12,01,26,16.10
2006,07,12,01,27,16.10
2006,07,12,01,28,16.10
2006,07,12,01,29,16.10
2006,07,12,01,30,16.10
2006,07,12,01,31,16.10
2006,07,12,01,32,16.10
2006,07,12,01,33,16.10
2006,07,12,01,34,16.10
2006,07,12,01,35,16.10
2006,07,12,01,36,16.10
2006,07,12,01,37,16.10
2006,07,12,01,38,16.10
2006,07,12,01,39,16.00
2006,07,12,01,40,15.90
2006,07,12,01,41,15.90
2006,07,12,01,42,15.90
2006,07,12,01,43,15.90
2006,07,12,01,44,15.90
2006,07,12,01,45,15.90
2006,07,12,01,46,15.90
2006,07,12,01,47,15.90
2006,07,12,01,48,15.90
2006,07,12,01,49,15.90
2006,07,12,01,50,15.80
2006,07,12,01,51,15.80
2006,07,12,01,52,15.80
2006,07,12,01,53,15.80
2006,07,12,01,54,15.80
2006,07,12,01,55,15.80
2006,07,12,01,56,15.80
2006,07,12,01,57,15.80
2006,07,12,01,58,15.80
2006,07,12,01,59,15.80
2006,07,12,02,00,15.80
2006,07,12,02,01,15.80
2006,07,12,02,02,15.80
2006,07,12,02,03,15.80
2006,07,12,02,04,15.80
2006,07,12,02,05,15.80
2006,07,12,02,06,15.70
2006,07,12,02,07,15.70
2006,07,12,02,08,15.70
2006,07,12,02,09,15.70
2006,07,12,02,10,15.70
2006,07,12,02,11,15.70
2006,07,12,02,12,15.70
2006,07,12,02,13,15.70
2006,07,12,02,14,15.70
2006,07,12,02,15,15.70
2006,07,12,02,16,15.70
2006,07,12,02,17,15.70
2006,07,12,02,18,15.70
2006,07,12,02,19,15.70
2006,07,12,02,20,15.70
2006,07,12,02,21,15.70
2006,07,12,02,22,15.70
2006,07,12,02,23,15.70
2006,07,12,02,24,15.70
2006,07,12,02,25,15.70
2006,07,12,02,26,15.70
2006,07,12,02,27,15.70
2006,07,12,02,28,15.80
2006,07,12,02,29,15.80
2006,07,12,02,30,15.80
2006,07,12,02,31,15.80
2006,07,12,02,32,15.80
2006,07,12,02,33,15.80
2006,07,12,02,34,15.80
2006,07,12,02,35,15.80
2006,07,12,02,36,15.80
2006,07,12,02,37,15.80
2006,07,12,02,38,15.80
2006,07,12,02,39,15.70
2006,07,12,02,40,15.70
2006,07,12,02,41,15.70
2006,07,12,02,42,15.70
2006,07,12,02,43,15.70
2006,07,12,02,44,15.70
2006,07,12,02,45,15.70
2006,07,12,02,46,15.70
2006,07,12,02,47,15.70
2006,07,12,02,48,15.70
2006,07,12,02,49,15.70
2006,07,12,02,50,15.70
2006,07,12,02,51,15.70
2006,07,12,02,52,15.70
2006,07,12,02,53,15.70
2006,07,12,02,54,15.70
2006,07,12,02,55,15.70
2006,07,12,02,56,15.70
2006,07,12,02,57,15.70
2006,07,12,02,58,15.60
2006,07,12,02,59,15.60
2006,07,12,03,00,15.60
2006,07,12,03,01,15.60
2006,07,12,03,02,15.60
2006,07,12,03,03,15.60
2006,07,12,03,04,15.60
2006,07,12,03,05,15.60
2006,07,12,03,06,15.50
2006,07,12,03,07,15.50
2006,07,12,03,08,15.50
2006,07,12,03,09,15.50
2006,07,12,03,10,15.50
2006,07,12,03,11,15.50
2006,07,12,03,12,15.40
2006,07,12,03,13,15.40
2006,07,12,03,14,15.40
2006,07,12,03,15,15.40
2006,07,12,03,16,15.40
2006,07,12,03,17,15.40
2006,07,12,03,18,15.40
2006,07,12,03,19,15.40
2006,07,12,03,20,15.40
2006,07,12,03,21,15.30
2006,07,12,03,22,15.30
2006,07,12,03,23,15.30
2006,07,12,03,24,15.30
2006,07,12,03,25,15.30
2006,07,12,03,26,15.30
2006,07,12,03,27,15.30
2006,07,12,03,28,15.30
2006,07,12,03,29,15.30
2006,07,12,03,30,15.30
2006,07,12,03,31,15.30
2006,07,12,03,32,15.30
2006,07,12,03,33,15.30
2006,07,12,03,34,15.30
2006,07,12,03,35,15.30
2006,07,12,03,36,15.30
2006,07,12,03,37,15.30
2006,07,12,03,38,15.30
2006,07,12,03,39,15.30
2006,07,12,03,40,15.30
2006,07,12,03,41,15.30
2006,07,12,03,42,15.30
2006,07,12,03,43,15.30
2006,07,12,03,44,15.30
2006,07,12,03,45,15.30
2006,07,12,03,46,15.30
2006,07,12,03,47,15.30
2006,07,12,03,48,15.30
2006,07,12,03,49,15.30
2006,07,12,03,50,15.30
2006,07,12,03,51,15.30
2006,07,12,03,52,15.30
2006,07,12,03,53,15.30
2006,07,12,03,54,15.30
2006,07,12,03,55,15.30
2006,07,12,03,56,15.30
2006,07,12,03,57,15.20
2006,07,12,03,58,15.20
2006,07,12,03,59,15.20
2006,07,12,04,00,15.20
2006,07,12,04,01,15.20
2006,07,12,04,02,15.20
2006,07,12,04,03,15.20
2006,07,12,04,04,15.20
2006,07,12,04,05,15.20
2006,07,12,04,06,15.20
2006,07,12,04,07,15.20
2006,07,12,04,08,15.20
2006,07,12,04,09,15.20
2006,07,12,04,10,15.20
2006,07,12,04,11,15.20
2006,07,12,04,12,15.20
2006,07,12,04,13,15.10
2006,07,12,04,14,15.10
2006,07,12,04,15,15.10
2006,07,12,04,16,15.10
2006,07,12,04,17,15.00
2006,07,12,04,18,15.00
2006,07,12,04,19,15.00
2006,07,12,04,20,14.90
2006,07,12,04,21,14.90
2006,07,12,04,22,14.90
2006,07,12,04,23,14.90
2006,07,12,04,24,14.90
2006,07,12,04,25,14.90
2006,07,12,04,26,14.90
2006,07,12,04,27,14.80
2006,07,12,04,28,14.80
2006,07,12,04,29,14.80
2006,07,12,04,30,14.80
2006,07,12,04,31,14.80
2006,07,12,04,32,14.80
2006,07,12,04,33,14.80
2006,07,12,04,34,14.80
2006,07,12,04,35,14.80
2006,07,12,04,36,14.80
2006,07,12,04,37,14.80
2006,07,12,04,38,14.80
2006,07,12,04,39,14.80
2006,07,12,04,40,14.80
2006,07,12,04,41,14.80
2006,07,12,04,42,14.80
2006,07,12,04,43,14.80
2006,07,12,04,44,14.80
2006,07,12,04,45,14.80
2006,07,12,04,46,14.80
2006,07,12,04,47,14.80
2006,07,12,04,48,14.80
2006,07,12,04,49,14.80
2006,07,12,04,50,14.80
2006,07,12,04,51,14.70
2006,07,12,04,52,14.70
2006,07,12,04,53,14.70
2006,07,12,04,54,14.70
2006,07,12,04,55,14.70
2006,07,12,04,56,14.70
2006,07,12,04,57,14.60
2006,07,12,04,58,14.60
2006,07,12,04,59,14.60
2006,07,12,05,00,14.60
2006,07,12,05,01,14.60
2006,07,12,05,02,14.60
2006,07,12,05,03,14.60
2006,07,12,05,04,14.60
2006,07,12,05,05,14.60
2006,07,12,05,06,14.60
2006,07,12,05,07,14.60
2006,07,12,05,08,14.60
2006,07,12,05,09,14.60
2006,07,12,05,10,14.60
2006,07,12,05,11,14.60
2006,07,12,05,12,14.60
2006,07,12,05,13,14.60
2006,07,12,05,14,14.60
2006,07,12,05,15,14.60
2006,07,12,05,16,14.60
2006,07,12,05,17,14.60
2006,07,12,05,18,14.60
2006,07,12,05,19,14.60
2006,07,12,05,20,14.60
2006,07,12,05,21,14.60
2006,07,12,05,22,14.60
2006,07,12,05,23,14.60
2006,07,12,05,24,14.60
2006,07,12,05,25,14.60
2006,07,12,05,26,14.60
2006,07,12,05,27,14.70
2006,07,12,05,28,14.70
2006,07,12,05,29,14.70
2006,07,12,05,30,14.70
2006,07,12,05,31,14.70
2006,07,12,05,32,14.70
2006,07,12,05,33,14.70
2006,07,12,05,34,14.70
2006,07,12,05,35,14.70
2006,07,12,05,36,14.70
2006,07,12,05,37,14.70
2006,07,12,05,38,14.70
2006,07,12,05,39,14.70
2006,07,12,05,40,14.70
2006,07,12,05,41,14.70
2006,07,12,05,42,14.70
2006,07,12,05,43,14.70
2006,07,12,05,44,14.70
2006,07,12,05,45,14.70
2006,07,12,05,46,14.70
2006,07,12,05,47,14.70
2006,07,12,05,48,14.70
2006,07,12,05,49,14.70
2006,07,12,05,50,14.70
2006,07,12,05,51,14.70
2006,07,12,05,52,14.70
2006,07,12,05,53,14.70
2006,07,12,05,54,14.70
2006,07,12,05,55,14.70
2006,07,12,05,56,14.70
2006,07,12,05,57,14.70
2006,07,12,05,58,14.70
2006,07,12,05,59,14.70
2006,07,12,06,00,14.70
2006,07,12,06,01,14.70
2006,07,12,06,02,14.70
2006,07,12,06,03,14.70
2006,07,12,06,04,14.70
2006,07,12,06,05,14.70
2006,07,12,06,06,14.70
2006,07,12,06,07,14.60
2006,07,12,06,08,14.60
2006,07,12,06,09,14.60
2006,07,12,06,10,14.60
2006,07,12,06,11,14.60
2006,07,12,06,12,14.60
2006,07,12,06,13,14.60
2006,07,12,06,14,14.60
2006,07,12,06,15,14.60
2006,07,12,06,16,14.60
2006,07,12,06,17,14.60
2006,07,12,06,18,14.60
2006,07,12,06,19,14.60
2006,07,12,06,20,14.60
2006,07,12,06,21,14.70
2006,07,12,06,22,14.70
2006,07,12,06,23,14.70
2006,07,12,06,24,14.70
2006,07,12,06,25,14.70
2006,07,12,06,26,14.70
2006,07,12,06,27,14.70
2006,07,12,06,28,14.70
2006,07,12,06,29,14.70
2006,07,12,06,30,14.70
2006,07,12,06,31,14.70
2006,07,12,06,32,14.70
2006,07,12,06,33,14.70
2006,07,12,06,34,14.70
2006,07,12,06,35,14.70
2006,07,12,06,36,14.70
2006,07,12,06,37,14.80
2006,07,12,06,38,14.80
2006,07,12,06,39,14.80
2006,07,12,06,40,14.80
2006,07,12,06,41,14.80
2006,07,12,06,42,14.80
2006,07,12,06,43,14.80
2006,07,12,06,44,14.80
2006,07,12,06,45,14.80
2006,07,12,06,46,14.80
2006,07,12,06,47,14.80
2006,07,12,06,48,14.80
2006,07,12,06,49,14.80
2006,07,12,06,50,14.80
2006,07,12,06,51,14.80
2006,07,12,06,52,14.80
2006,07,12,06,53,14.90
2006,07,12,06,54,14.90
2006,07,12,06,55,14.90
2006,07,12,06,56,14.90
2006,07,12,06,57,14.90
2006,07,12,06,58,14.90
2006,07,12,06,59,14.90
2006,07,12,07,00,14.90
2006,07,12,07,01,14.90
2006,07,12,07,02,14.90
2006,07,12,07,03,14.90
2006,07,12,07,04,14.90
2006,07,12,07,05,14.90
2006,07,12,07,06,14.90
2006,07,12,07,07,14.90
2006,07,12,07,08,14.90
2006,07,12,07,09,14.90
2006,07,12,07,10,14.90
2006,07,12,07,11,14.90
2006,07,12,07,12,14.90
2006,07,12,07,13,14.90
2006,07,12,07,14,14.80
2006,07,12,07,15,14.80
2006,07,12,07,16,14.80
2006,07,12,07,17,14.80
2006,07,12,07,18,14.80
2006,07,12,07,19,14.80
2006,07,12,07,20,14.80
2006,07,12,07,21,14.80
2006,07,12,07,22,14.80
2006,07,12,07,23,14.80
2006,07,12,07,24,14.80
2006,07,12,07,25,14.80
2006,07,12,07,26,14.80
2006,07,12,07,27,14.80
2006,07,12,07,28,14.80
2006,07,12,07,29,14.80
2006,07,12,07,30,14.80
2006,07,12,07,31,14.80
2006,07,12,07,32,14.80
2006,07,12,07,33,14.80
2006,07,12,07,34,14.80
2006,07,12,07,35,14.80
2006,07,12,07,36,14.80
2006,07,12,07,37,14.80
2006,07,12,07,38,14.80
2006,07,12,07,39,14.80
2006,07,12,07,40,14.80
2006,07,12,07,41,14.80
2006,07,12,07,42,14.80
2006,07,12,07,43,14.70
2006,07,12,07,44,14.70
2006,07,12,07,45,14.70
2006,07,12,07,46,14.60
2006,07,12,07,47,14.50
2006,07,12,07,48,14.40
2006,07,12,07,49,14.40
2006,07,12,07,50,14.30
2006,07,12,07,51,14.20
2006,07,12,07,52,14.20
2006,07,12,07,53,14.20
2006,07,12,07,54,14.10
2006,07,12,07,55,14.10
2006,07,12,07,56,14.10
2006,07,12,07,57,14.00
2006,07,12,07,58,14.00
2006,07,12,07,59,14.00
2006,07,12,08,00,13.90
2006,07,12,08,01,13.90
2006,07,12,08,02,13.90
2006,07,12,08,03,13.80
2006,07,12,08,04,13.80
2006,07,12,08,05,13.70
2006,07,12,08,06,13.70
2006,07,12,08,07,13.60
2006,07,12,08,08,13.60
2006,07,12,08,09,13.50
2006,07,12,08,10,13.50
2006,07,12,08,11,13.40
2006,07,12,08,12,13.40
2006,07,12,08,13,13.30
2006,07,12,08,14,13.30
2006,07,12,08,15,13.30
2006,07,12,08,16,13.30
2006,07,12,08,17,13.30
2006,07,12,08,18,13.30
2006,07,12,08,19,13.20
2006,07,12,08,20,13.20
2006,07,12,08,21,13.20
2006,07,12,08,22,13.20
2006,07,12,08,23,13.20
2006,07,12,08,24,13.20
2006,07,12,08,25,13.20
2006,07,12,08,26,13.10
2006,07,12,08,27,13.10
2006,07,12,08,28,13.10
2006,07,12,08,29,13.10
2006,07,12,08,30,13.10
2006,07,12,08,31,13.00
2006,07,12,08,32,13.00
2006,07,12,08,33,13.00
2006,07,12,08,34,13.00
2006,07,12,08,35,13.00
2006,07,12,08,36,13.00
2006,07,12,08,37,12.90
2006,07,12,08,38,12.90
2006,07,12,08,39,12.90
2006,07,12,08,40,12.90
2006,07,12,08,41,12.90
2006,07,12,08,42,12.90
2006,07,12,08,43,12.90
2006,07,12,08,44,12.90
2006,07,12,08,45,12.90
2006,07,12,08,46,12.90
2006,07,12,08,47,12.90
2006,07,12,08,48,12.90
2006,07,12,08,49,12.90
2006,07,12,08,50,13.00
2006,07,12,08,51,13.00
2006,07,12,08,52,12.90
2006,07,12,08,53,13.00
2006,07,12,08,54,13.00
2006,07,12,08,55,13.00
2006,07,12,08,56,13.00
2006,07,12,08,57,13.00
2006,07,12,08,58,13.00
2006,07,12,08,59,13.00
2006,07,12,09,00,13.00
2006,07,12,09,01,13.00
2006,07,12,09,02,13.00
2006,07,12,09,03,13.00
2006,07,12,09,04,13.00
2006,07,12,09,05,13.00
2006,07,12,09,06,13.00
2006,07,12,09,07,13.00
2006,07,12,09,08,13.00
2006,07,12,09,09,13.00
2006,07,12,09,10,13.00
2006,07,12,09,11,13.00
2006,07,12,09,12,13.00
2006,07,12,09,13,13.00
2006,07,12,09,14,13.00
2006,07,12,09,15,13.00
2006,07,12,09,16,13.00
2006,07,12,09,17,13.00
2006,07,12,09,18,13.00
2006,07,12,09,19,13.00
2006,07,12,09,20,13.00
2006,07,12,09,21,13.00
2006,07,12,09,22,13.00
2006,07,12,09,23,13.00
2006,07,12,09,24,13.00
2006,07,12,09,25,13.00
2006,07,12,09,26,13.00
2006,07,12,09,27,13.00
2006,07,12,09,28,13.00
2006,07,12,09,29,13.00
2006,07,12,09,30,13.00
2006,07,12,09,31,13.00
2006,07,12,09,32,13.00
2006,07,12,09,33,12.90
2006,07,12,09,34,12.90
2006,07,12,09,35,12.90
2006,07,12,09,36,12.90
2006,07,12,09,37,13.00
2006,07,12,09,38,13.00
2006,07,12,09,39,13.00
2006,07,12,09,40,13.00
2006,07,12,09,41,13.00
2006,07,12,09,42,13.00
2006,07,12,09,43,13.00
2006,07,12,09,44,13.00
2006,07,12,09,45,13.00
2006,07,12,09,46,13.00
2006,07,12,09,47,13.10
2006,07,12,09,48,13.10
2006,07,12,09,49,13.10
2006,07,12,09,50,13.10
2006,07,12,09,51,13.10
2006,07,12,09,52,13.10
2006,07,12,09,53,13.10
2006,07,12,09,54,13.10
2006,07,12,09,55,13.10
2006,07,12,09,56,13.20
2006,07,12,09,57,13.20
2006,07,12,09,58,13.10
2006,07,12,09,59,13.10
2006,07,12,10,00,13.20
2006,07,12,10,01,13.20
2006,07,12,10,02,13.20
2006,07,12,10,03,13.20
2006,07,12,10,04,13.20
2006,07,12,10,05,13.30
2006,07,12,10,06,13.30
2006,07,12,10,07,13.30
2006,07,12,10,08,13.20
2006,07,12,10,09,13.20
2006,07,12,10,10,13.20
2006,07,12,10,11,13.20
2006,07,12,10,12,13.20
2006,07,12,10,13,13.20
2006,07,12,10,14,13.20
2006,07,12,10,15,13.20
2006,07,12,10,16,13.20
2006,07,12,10,17,13.20
2006,07,12,10,18,13.20
2006,07,12,10,19,13.20
2006,07,12,10,20,13.20
2006,07,12,10,21,13.30
2006,07,12,10,22,13.30
2006,07,12,10,23,13.30
2006,07,12,10,24,13.30
2006,07,12,10,25,13.30
2006,07,12,10,26,13.30
2006,07,12,10,27,13.30
2006,07,12,10,28,13.30
2006,07,12,10,29,13.30
2006,07,12,10,30,13.40
2006,07,12,10,31,13.40
2006,07,12,10,32,13.40
2006,07,12,10,33,13.50
2006,07,12,10,34,13.40
2006,07,12,10,35,13.40
2006,07,12,10,36,13.50
2006,07,12,10,37,13.50
2006,07,12,10,38,13.50
2006,07,12,10,39,13.50
2006,07,12,10,40,13.60
2006,07,12,10,41,13.60
2006,07,12,10,42,13.60
2006,07,12,10,43,13.60
2006,07,12,10,44,13.60
2006,07,12,10,45,13.60
2006,07,12,10,46,13.60
2006,07,12,10,47,13.60
2006,07,12,10,48,13.60
2006,07,12,10,49,13.60
2006,07,12,10,50,13.60
2006,07,12,10,51,13.50
2006,07,12,10,52,13.50
2006,07,12,10,53,13.50
2006,07,12,10,54,13.50
2006,07,12,10,55,13.50
2006,07,12,10,56,13.50
2006,07,12,10,57,13.60
2006,07,12,10,58,13.60
2006,07,12,10,59,13.60
2006,07,12,11,00,13.60
2006,07,12,11,01,13.60
2006,07,12,11,02,13.60
2006,07,12,11,03,13.50
2006,07,12,11,04,13.50
2006,07,12,11,05,13.50
2006,07,12,11,06,13.50
2006,07,12,11,07,13.50
2006,07,12,11,08,13.50
2006,07,12,11,09,13.50
2006,07,12,11,10,13.50
2006,07,12,11,11,13.50
2006,07,12,11,12,13.50
2006,07,12,11,13,13.50
2006,07,12,11,14,13.50
2006,07,12,11,15,13.50
2006,07,12,11,16,13.50
2006,07,12,11,17,13.50
2006,07,12,11,18,13.50
2006,07,12,11,19,13.50
2006,07,12,11,20,13.50
2006,07,12,11,21,13.50
2006,07,12,11,22,13.50
2006,07,12,11,23,13.60
2006,07,12,11,24,13.60
2006,07,12,11,25,13.60
2006,07,12,11,26,13.70
2006,07,12,11,27,13.70
2006,07,12,11,28,13.70
2006,07,12,11,29,13.70
2006,07,12,11,30,13.70
2006,07,12,11,31,13.70
2006,07,12,11,32,13.70
2006,07,12,11,33,13.80
2006,07,12,11,34,13.80
2006,07,12,11,35,13.90
2006,07,12,11,36,13.90
2006,07,12,11,37,13.90
2006,07,12,11,38,14.00
2006,07,12,11,39,14.00
2006,07,12,11,40,14.10
2006,07,12,11,41,14.10
2006,07,12,11,42,14.20
2006,07,12,11,43,14.20
2006,07,12,11,44,14.20
2006,07,12,11,45,14.30
2006,07,12,11,46,14.40
2006,07,12,11,47,14.40
2006,07,12,11,48,14.40
2006,07,12,11,49,14.40
2006,07,12,11,50,14.50
2006,07,12,11,51,14.50
2006,07,12,11,52,14.50
2006,07,12,11,53,14.50
2006,07,12,11,54,14.50
2006,07,12,11,55,14.50
2006,07,12,11,56,14.50
2006,07,12,11,57,14.50
2006,07,12,11,58,14.60
2006,07,12,11,59,14.60
2006,07,12,12,00,14.60
2006,07,12,12,01,14.60
2006,07,12,12,02,14.50
2006,07,12,12,03,14.50
2006,07,12,12,04,14.50
2006,07,12,12,05,14.50
2006,07,12,12,06,14.50
2006,07,12,12,07,14.50
2006,07,12,12,08,14.50
2006,07,12,12,09,14.50
2006,07,12,12,10,14.50
2006,07,12,12,11,14.50
2006,07,12,12,12,14.50
2006,07,12,12,13,14.50
2006,07,12,12,14,14.60
2006,07,12,12,15,14.60
2006,07,12,12,16,14.60
2006,07,12,12,17,14.70
2006,07,12,12,18,14.70
2006,07,12,12,19,14.70
2006,07,12,12,20,14.70
2006,07,12,12,21,14.80
2006,07,12,12,22,14.80
2006,07,12,12,23,14.80
2006,07,12,12,24,14.80
2006,07,12,12,25,14.80
2006,07,12,12,26,14.80
2006,07,12,12,27,14.80
2006,07,12,12,28,14.90
2006,07,12,12,29,14.80
2006,07,12,12,30,14.80
2006,07,12,12,31,14.80
2006,07,12,12,32,14.80
2006,07,12,12,33,14.80
2006,07,12,12,34,14.80
2006,07,12,12,35,14.80
2006,07,12,12,36,14.80
2006,07,12,12,37,14.80
2006,07,12,12,38,14.80
2006,07,12,12,39,14.80
2006,07,12,12,40,14.80
2006,07,12,12,41,14.80
2006,07,12,12,42,14.80
2006,07,12,12,43,14.90
2006,07,12,12,44,14.90
2006,07,12,12,45,15.00
2006,07,12,12,46,15.00
2006,07,12,12,47,15.00
2006,07,12,12,48,15.00
2006,07,12,12,49,15.00
2006,07,12,12,50,15.00
2006,07,12,12,51,15.00
2006,07,12,12,52,15.10
2006,07,12,12,53,15.10
2006,07,12,12,54,15.20
2006,07,12,12,55,15.20
2006,07,12,12,56,15.20
2006,07,12,12,57,15.20
2006,07,12,12,58,15.20
2006,07,12,12,59,15.20
2006,07,12,13,00,15.30
2006,07,12,13,01,15.30
2006,07,12,13,02,15.30
2006,07,12,13,03,15.30
2006,07,12,13,04,15.30
2006,07,12,13,05,15.40
2006,07,12,13,06,15.40
2006,07,12,13,07,15.50
2006,07,12,13,08,15.50
2006,07,12,13,09,15.50
2006,07,12,13,10,15.60
2006,07,12,13,11,15.60
2006,07,12,13,12,15.60
2006,07,12,13,13,15.60
2006,07,12,13,14,15.60
2006,07,12,13,15,15.60
2006,07,12,13,16,15.60
2006,07,12,13,17,15.60
2006,07,12,13,18,15.70
2006,07,12,13,19,15.70
2006,07,12,13,20,15.70
2006,07,12,13,21,15.70
2006,07,12,13,22,15.70
2006,07,12,13,23,15.70
2006,07,12,13,24,15.70
2006,07,12,13,25,15.70
2006,07,12,13,26,15.80
2006,07,12,13,27,15.80
2006,07,12,13,28,15.80
2006,07,12,13,29,15.80
2006,07,12,13,30,15.80
2006,07,12,13,31,15.80
2006,07,12,13,32,15.80
2006,07,12,13,33,15.80
2006,07,12,13,34,15.80
2006,07,12,13,35,15.80
2006,07,12,13,36,15.80
2006,07,12,13,37,15.80
2006,07,12,13,38,15.80
2006,07,12,13,39,15.90
2006,07,12,13,40,15.90
2006,07,12,13,41,16.10
2006,07,12,13,42,16.10
2006,07,12,13,43,16.10
2006,07,12,13,44,16.10
2006,07,12,13,45,16.10
2006,07,12,13,46,16.10
2006,07,12,13,47,16.20
2006,07,12,13,48,16.20
2006,07,12,13,49,16.20
2006,07,12,13,50,16.20
2006,07,12,13,51,16.30
2006,07,12,13,52,16.30
2006,07,12,13,53,16.30
2006,07,12,13,54,16.30
2006,07,12,13,55,16.30
2006,07,12,13,56,16.30
2006,07,12,13,57,16.20
2006,07,12,13,58,16.20
2006,07,12,13,59,16.20
2006,07,12,14,00,16.20
2006,07,12,14,01,16.20
2006,07,12,14,02,16.20
2006,07,12,14,03,16.20
2006,07,12,14,04,16.20
2006,07,12,14,05,16.20
2006,07,12,14,06,16.30
2006,07,12,14,07,16.40
2006,07,12,14,08,16.40
2006,07,12,14,09,16.40
2006,07,12,14,10,16.50
2006,07,12,14,11,16.60
2006,07,12,14,12,16.50
2006,07,12,14,13,16.40
2006,07,12,14,14,16.40
2006,07,12,14,15,16.50
2006,07,12,14,16,16.60
2006,07,12,14,17,16.70
2006,07,12,14,18,16.70
2006,07,12,14,19,16.70
2006,07,12,14,20,16.70
2006,07,12,14,21,16.70
2006,07,12,14,22,16.70
2006,07,12,14,23,16.70
2006,07,12,14,24,16.70
2006,07,12,14,25,16.60
2006,07,12,14,26,16.50
2006,07,12,14,27,16.40
2006,07,12,14,28,16.40
2006,07,12,14,29,16.40
2006,07,12,14,30,16.40
2006,07,12,14,31,16.40
2006,07,12,14,32,16.40
2006,07,12,14,33,16.40
2006,07,12,14,34,16.30
2006,07,12,14,35,16.30
2006,07,12,14,36,16.30
2006,07,12,14,37,16.30
2006,07,12,14,38,16.30
2006,07,12,14,39,16.30
2006,07,12,14,40,16.40
2006,07,12,14,41,16.40
2006,07,12,14,42,16.40
2006,07,12,14,43,16.60
2006,07,12,14,44,16.70
2006,07,12,14,45,16.70
2006,07,12,14,46,16.80
2006,07,12,14,47,16.80
2006,07,12,14,48,16.90
2006,07,12,14,49,16.90
2006,07,12,14,50,17.00
2006,07,12,14,51,17.10
2006,07,12,14,52,17.20
2006,07,12,14,53,17.30
2006,07,12,14,54,17.30
2006,07,12,14,55,17.30
2006,07,12,14,56,17.30
2006,07,12,14,57,17.40
2006,07,12,14,58,17.40
2006,07,12,14,59,17.30
2006,07,12,15,00,17.30
2006,07,12,15,01,17.20
2006,07,12,15,02,17.20
2006,07,12,15,03,17.20
2006,07,12,15,04,17.20
2006,07,12,15,05,17.10
2006,07,12,15,06,17.10
2006,07,12,15,07,17.10
2006,07,12,15,08,17.10
2006,07,12,15,09,17.20
2006,07,12,15,10,17.20
2006,07,12,15,11,17.20
2006,07,12,15,12,17.20
2006,07,12,15,13,17.30
2006,07,12,15,14,17.30
2006,07,12,15,15,17.50
2006,07,12,15,16,17.50
2006,07,12,15,17,17.70
2006,07,12,15,18,17.80
2006,07,12,15,19,17.90
2006,07,12,15,20,17.90
2006,07,12,15,21,18.00
2006,07,12,15,22,18.10
2006,07,12,15,23,18.10
2006,07,12,15,24,18.10
2006,07,12,15,25,18.10
2006,07,12,15,26,18.10
2006,07,12,15,27,18.10
2006,07,12,15,28,18.10
2006,07,12,15,29,18.10
2006,07,12,15,30,18.20
2006,07,12,15,31,18.20
2006,07,12,15,32,18.30
2006,07,12,15,33,18.50
2006,07,12,15,34,18.70
2006,07,12,15,35,18.90
2006,07,12,15,36,19.00
2006,07,12,15,37,19.10
2006,07,12,15,38,19.10
2006,07,12,15,39,19.10
2006,07,12,15,40,19.10
2006,07,12,15,41,19.10
2006,07,12,15,42,19.10
2006,07,12,15,43,19.00
2006,07,12,15,44,18.80
2006,07,12,15,45,18.60
2006,07,12,15,46,18.50
2006,07,12,15,47,18.40
2006,07,12,15,48,18.20
2006,07,12,15,49,18.10
2006,07,12,15,50,18.00
2006,07,12,15,51,17.90
2006,07,12,15,52,17.80
2006,07,12,15,53,17.70
2006,07,12,15,54,17.50
2006,07,12,15,55,17.40
2006,07,12,15,56,17.30
2006,07,12,15,57,17.30
2006,07,12,15,58,17.20
2006,07,12,15,59,17.20
2006,07,12,16,00,17.20
2006,07,12,16,01,17.20
2006,07,12,16,02,17.30
2006,07,12,16,03,17.30
2006,07,12,16,04,17.30
2006,07,12,16,05,17.30
2006,07,12,16,06,17.30
2006,07,12,16,07,17.30
2006,07,12,16,08,17.40
2006,07,12,16,09,17.40
2006,07,12,16,10,17.40
2006,07,12,16,11,17.40
2006,07,12,16,12,17.30
2006,07,12,16,13,17.30
2006,07,12,16,14,17.40
2006,07,12,16,15,17.40
2006,07,12,16,16,17.40
2006,07,12,16,17,17.50
2006,07,12,16,18,17.50
2006,07,12,16,19,17.50
2006,07,12,16,20,17.60
2006,07,12,16,21,17.70
2006,07,12,16,22,17.80
2006,07,12,16,23,17.90
2006,07,12,16,24,18.10
2006,07,12,16,25,18.30
2006,07,12,16,26,18.40
2006,07,12,16,27,18.40
2006,07,12,16,28,18.40
2006,07,12,16,29,18.40
2006,07,12,16,30,18.40
2006,07,12,16,31,18.40
2006,07,12,16,32,18.40
2006,07,12,16,33,18.40
2006,07,12,16,34,18.40
2006,07,12,16,35,18.40
2006,07,12,16,36,18.40
2006,07,12,16,37,18.40
2006,07,12,16,38,18.40
2006,07,12,16,39,18.40
2006,07,12,16,40,18.30
2006,07,12,16,41,18.30
2006,07,12,16,42,18.30
2006,07,12,16,43,18.40
2006,07,12,16,44,18.50
2006,07,12,16,45,18.50
2006,07,12,16,46,18.50
2006,07,12,16,47,18.50
2006,07,12,16,48,18.50
2006,07,12,16,49,18.60
2006,07,12,16,50,18.70
2006,07,12,16,51,18.80
2006,07,12,16,52,18.90
2006,07,12,16,53,18.90
2006,07,12,16,54,19.00
2006,07,12,16,55,19.10
2006,07,12,16,56,19.30
2006,07,12,16,57,19.30
2006,07,12,16,58,19.30
2006,07,12,16,59,19.40
2006,07,12,17,00,19.40
2006,07,12,17,01,19.40
2006,07,12,17,02,19.50
2006,07,12,17,03,19.50
2006,07,12,17,04,19.50
2006,07,12,17,05,19.50
2006,07,12,17,06,19.40
2006,07,12,17,07,19.30
2006,07,12,17,08,19.20
2006,07,12,17,09,19.20
2006,07,12,17,10,19.20
2006,07,12,17,11,19.10
2006,07,12,17,12,19.10
2006,07,12,17,13,19.10
2006,07,12,17,14,19.10
2006,07,12,17,15,19.00
2006,07,12,17,16,18.90
2006,07,12,17,17,18.90
2006,07,12,17,18,18.80
2006,07,12,17,19,18.70